Temp
16 17 17 18 15 13 14 16 20 21 19 22 21 22 19 18 19 18 18 18 17 17 15 15 15 14 15 15 14 15 14 12 11 10 11 11 11 10 11 10 11 10 10 11 13 13 13 13 12
17 17 17 17 14 14 14 16 19 19 21 22 21 19 19 17 18 18 17 17 17 17 15 15 15 13 15 15 14 15 13 11 10 10 10 11 11 11 11 11 11 10 11 13 13 13 13 12 12
17 17 16 14 13 15 15 18 20 20 22 22 21 19 18 17 18 19 18 18 16 16 15 15 14 13 14 15 14 15 14 12 11 10 11 11 11 11 11 11 13 13 13 13 13 12 12 12 12
17 16 16 14 14 16 16 17 19 20 22 22 21 17 18 18 20 19 18 17 16 16 15 15 14 14 14 14 14 14 15 14 11 11 11 11 11 11 11 11 11 11 11 12 12 12 12 12 12
16 15 13 13 14 16 17 19 20 20 21 21 21 17 17 17 18 18 18 17 16 16 15 15 14 14 14 14 13 14 15 14 12 11 11 11 11 11 12 11 11 12 12 12 12 12 12 12 12
15 14 12 13 14 16 16 19 19 20 21 21 19 17 17 17 17 17 17 16 16 16 15 15 14 14 14 14 13 13 14 15 14 11 11 11 13 12 12 12 12 12 12 12 12 12 12 12 12
13 11 12 13 15 16 18 20 19 19 20 20 20 15 16 16 16 17 16 16 15 16 15 14 14 14 13 13 13 13 13 15 15 13 11 13 13 13 13 12 12 12 12 12 12 12 12 13 13
14 12 13 13 15 16 18 19 19 19 20 21 20 15 15 17 16 15 15 15 15 15 15 15 15 14 14 13 13 13 13 14 15 14 13 13 13 13 13 12 12 12 12 12 12 12 12 12 12
13 12 11 14 15 16 18 17 18 19 19 20 19 20 20 18 15 15 14 14 14 14 14 14 14 15 14 13 13 13 13 13 14 14 14 13 13 13 12 12 12 12 11 11 12 12 11 12 12
11 11 12 14 15 15 16 16 16 17 18 18 18 19 19 18 16 15 15 14 14 14 14 14 14 14 14 13 13 12 13 13 13 14 14 13 13 13 12 12 12 11 12 12 12 11 11 12 12
12 11 13 14 14 14 14 15 16 16 15 17 18 19 18 17 15 15 15 15 16 14 14 14 14 14 14 14 13 13 13 13 12 13 14 13 12 12 12 12 11 11 11 11 11 11 11 11 12
8 11 10 11 10 11 12 13 15 16 16 17 17 18 18 16 16 16 15 15 15 14 14 14 14 14 14 14 14 13 12 13 13 13 13 13 12 12 12 11 11 11 10 11 11 11 11 11 11
8 8 9 9 10 11 12 12 13 13 15 16 16 17 17 17 17 16 16 15 14 14 14 14 13 14 13 13 12 13 13 13 13 13 13 13 13 12 12 11 10 10 10 10 11 10 10 11 11
7 8 8 10 10 11 11 12 12 14 15 16 15 15 16 16 17 16 15 15 15 14 14 13 13 13 13 13 13 12 12 12 12 13 13 13 13 12 11 11 10 10 11 10 10 10 10 10 10
8 6 7 9 10 9 10 10 12 14 14 14 15 15 16 16 16 16 17 16 15 14 14 14 13 13 13 14 14 13 14 13 12 13 13 13 13 12 11 10 10 10 10 11 10 10 10 9 10
6 7 5 8 8 10 10 8 10 12 12 11 12 13 14 15 16 16 16 16 16 15 14 14 14 13 13 13 13 13 14 13 12 12 13 12 13 11 11 11 11 11 10 10 10 10 10 9 9
4 4 5 6 8 8 9 7 8 11 10 10 10 11 12 12 14 15 16 16 17 16 15 14 13 13 13 13 13 13 13 13 13 12 12 12 11 10 10 10 10 10 10 10 10 9 9 9 8
4 4 5 5 7 7 7 7 8 10 10 10 10 10 11 12 13 13 14 16 16 16 15 14 14 13 13 13 13 13 12 12 11 11 11 11 11 10 10 10 10 10 10 10 9 9 9 8 7
5 4 4 5 7 6 6 7 8 9 9 9 9 10 10 11 13 14 14 14 16 16 15 14 14 13 12 12 12 12 12 11 10 10 10 10 10 10 10 10 10 10 10 10 9 9 8 7 6
5 4 4 5 6 6 6 6 7 7 8 8 9 9 10 11 12 14 14 14 13 15 16 14 14 13 13 12 12 12 11 10 10 10 10 10 10 10 10 9 10 10 9 9 9 9 8 7 5
5 5 4 5 6 6 5 5 5 8 8 9 10 10 10 10 11 12 13 14 14 14 15 15 14 13 13 12 11 11 11 10 10 10 10 10 10 10 9 9 9 9 9 9 9 8 7 7 5
4 6 6 5 5 3 5 4 6 6 6 7 8 7 8 9 11 12 12 13 13 13 13 16 15 13 12 12 12 12 11 10 10 10 10 9 10 9 9 9 9 9 8 8 8 7 6 6 5
5 6 5 5 4 4 4 4 5 7 7 6 5 6 6 7 7 9 9 11 13 13 13 13 14 13 12 12 12 11 11 10 10 10 10 9 9 9 8 9 9 8 8 7 6 5 4 4 3
5 5 4 3 4 3 4 3 6 6 6 5 6 5 5 6 6 8 9 10 12 14 13 12 12 12 11 11 12 11 10 10 10 9 9 9 9 9 8 8 8 7 6 6 5 4 2 1 1
4 2 -2 -1 -1 0 5 5 6 6 6 6 5 5 5 4 5 5 6 8 10 11 13 13 11 11 11 11 11 10 10 11 10 10 9 8 8 8 7 7 6 6 4 4 3 2 1 -0 -0
3 2 3 4 1 4 6 4 6 6 6 6 6 4 4 4 3 3 3 6 8 9 10 13 13 11 11 11 11 10 10 10 10 9 9 8 8 7 6 5 4 4 2 2 2 1 0 -0 -0
1 1 5 4 1 3 3 5 7 7 6 5 5 3 3 3 2 2 2 4 7 9 8 10 12 12 11 11 11 11 10 10 9 9 9 8 7 6 5 3 2 2 1 1 0 -0 -0 0 0
4 5 3 1 3 3 4 3 6 4 4 4 4 3 2 2 1 0 1 2 5 8 10 9 10 12 11 10 11 10 10 10 9 9 8 7 6 5 2 1 1 0 -0 -0 -1 -1 0 1 -0
-0 0 2 2 3 4 4 5 6 4 5 4 3 2 2 1 0 -0 -0 0 3 8 10 8 9 10 10 10 10 10 10 9 8 8 6 6 5 2 -0 0 -0 -0 -0 -2 -1 0 -0 -1 -1
3 3 1 2 3 3 3 4 5 6 4 3 2 1 0 -1 -1 -1 -1 0 2 6 9 8 10 10 9 10 10 9 9 8 7 6 5 2 1 -0 -0 -0 -1 -1 -3 -1 -0 -0 -1 -1 -1
Height
1515 1513 1512 1513 1521 1520 1522 1512 1497 1495 1497 1491 1489 1487 1490 1492 1494 1508 1496 1499 1502 1505 1510 1514 1517 1520 1522 1524 1525 1526 1527 1528 1530 1531 1532 1533 1534 1534 1535 1537 1537 1539 1539 1540 1541 1541 1542 1543 1544
1514 1513 1512 1511 1522 1526 1524 1505 1498 1495 1491 1491 1492 1488 1491 1494 1493 1493 1496 1499 1503 1505 1509 1514 1517 1519 1522 1524 1525 1526 1527 1529 1531 1533 1533 1534 1535 1536 1538 1538 1539 1539 1540 1541 1542 1543 1544 1544 1545
1512 1512 1513 1513 1518 1518 1518 1498 1493 1491 1489 1489 1490 1490 1490 1490 1491 1492 1494 1497 1501 1505 1508 1512 1516 1519 1522 1523 1525 1526 1528 1529 1531 1533 1534 1535 1536 1538 1538 1539 1539 1540 1541 1542 1543 1544 1545 1545 1545
1512 1512 1513 1515 1514 1500 1498 1493 1491 1490 1488 1487 1488 1491 1491 1489 1489 1490 1493 1496 1500 1504 1509 1512 1515 1518 1521 1523 1525 1527 1528 1529 1531 1533 1534 1536 1537 1537 1538 1539 1541 1542 1543 1544 1545 1545 1546 1546 1546
1511 1511 1515 1514 1507 1496 1491 1491 1491 1490 1487 1486 1488 1489 1489 1489 1489 1490 1490 1495 1498 1502 1507 1511 1515 1518 1521 1523 1525 1527 1528 1529 1530 1533 1534 1535 1536 1537 1538 1540 1541 1543 1544 1545 1545 1546 1546 1546 1546
1510 1509 1517 1515 1504 1494 1490 1489 1490 1488 1485 1484 1485 1487 1487 1488 1489 1488 1491 1494 1497 1500 1505 1509 1513 1516 1519 1522 1524 1526 1527 1529 1530 1532 1534 1535 1536 1537 1539 1540 1542 1543 1545 1546 1546 1546 1546 1546 1546
1509 1512 1511 1506 1502 1495 1489 1487 1486 1482 1482 1481 1482 1486 1486 1486 1488 1488 1490 1494 1497 1500 1502 1506 1509 1514 1518 1521 1523 1525 1527 1528 1529 1531 1533 1534 1536 1538 1540 1541 1542 1544 1546 1546 1547 1547 1547 1546 1545
1506 1506 1506 1502 1500 1492 1485 1485 1484 1482 1480 1479 1479 1482 1484 1482 1486 1489 1492 1493 1496 1498 1501 1503 1507 1510 1514 1518 1521 1524 1526 1527 1529 1530 1532 1534 1535 1538 1540 1542 1543 1544 1545 1546 1547 1547 1547 1547 1547
1504 1506 1504 1496 1494 1485 1484 1486 1482 1481 1479 1478 1477 1476 1478 1479 1484 1488 1490 1492 1494 1496 1499 1501 1504 1507 1510 1515 1518 1522 1525 1527 1528 1530 1531 1533 1535 1536 1539 1541 1543 1544 1545 1546 1547 1547 1547 1547 1547
1503 1501 1494 1489 1487 1486 1484 1485 1483 1482 1479 1477 1477 1476 1476 1478 1480 1482 1484 1485 1488 1491 1494 1497 1501 1504 1508 1511 1516 1519 1523 1525 1527 1529 1531 1532 1534 1536 1538 1541 1542 1543 1544 1545 1546 1547 1547 1547 1548
1498 1497 1491 1489 1489 1488 1485 1481 1481 1480 1479 1477 1476 1473 1473 1474 1477 1479 1482 1482 1481 1486 1490 1493 1496 1502 1505 1507 1510 1515 1519 1522 1525 1527 1530 1531 1533 1534 1537 1539 1541 1542 1543 1544 1545 1546 1547 1546 1547
1503 1495 1496 1493 1490 1488 1485 1483 1477 1476 1476 1476 1476 1474 1469 1471 1471 1473 1476 1478 1479 1483 1486 1490 1493 1495 1500 1504 1506 1510 1514 1519 1521 1524 1527 1529 1531 1533 1536 1538 1540 1541 1542 1543 1544 1545 1546 1546 1547
1500 1499 1494 1492 1490 1486 1483 1479 1478 1469 1472 1472 1473 1473 1470 1468 1469 1470 1473 1476 1479 1482 1485 1487 1490 1493 1494 1498 1503 1505 1508 1512 1517 1520 1522 1526 1529 1531 1534 1536 1538 1540 1541 1543 1543 1544 1545 1546 1546
1501 1498 1494 1490 1486 1481 1478 1471 1473 1466 1468 1467 1470 1470 1470 1467 1466 1468 1470 1473 1475 1477 1480 1485 1487 1490 1493 1495 1498 1503 1507 1510 1513 1515 1518 1522 1526 1529 1532 1533 1535 1537 1540 1542 1542 1542 1543 1544 1544
1500 1498 1491 1487 1487 1482 1476 1465 1461 1465 1466 1461 1462 1465 1466 1465 1464 1464 1465 1466 1471 1473 1476 1478 1483 1487 1490 1494 1496 1499 1503 1507 1510 1512 1514 1517 1521 1525 1528 1531 1534 1535 1537 1539 1540 1540 1541 1542 1543
1502 1499 1503 1487 1486 1483 1483 1469 1465 1459 1461 1460 1456 1456 1460 1460 1460 1460 1462 1462 1464 1469 1472 1475 1478 1481 1485 1489 1492 1495 1498 1503 1506 1508 1511 1513 1517 1520 1523 1527 1530 1533 1534 1537 1537 1538 1539 1539 1540
1510 1512 1507 1497 1487 1486 1483 1471 1466 1461 1458 1455 1453 1450 1452 1454 1454 1455 1457 1458 1459 1461 1464 1469 1473 1476 1480 1485 1488 1492 1496 1498 1501 1504 1508 1510 1514 1517 1521 1524 1527 1530 1531 1534 1535 1536 1537 1537 1538
1516 1512 1505 1502 1489 1482 1479 1463 1463 1462 1456 1449 1446 1444 1443 1443 1446 1448 1449 1452 1453 1455 1457 1461 1465 1471 1476 1481 1485 1489 1492 1495 1497 1501 1504 1508 1511 1514 1518 1522 1524 1526 1528 1530 1532 1533 1534 1535 1535
1512 1511 1507 1496 1487 1484 1477 1460 1458 1454 1449 1445 1441 1439 1434 1436 1437 1439 1442 1444 1445 1447 1451 1455 1459 1463 1469 1474 1479 1483 1485 1490 1494 1497 1502 1505 1509 1512 1515 1517 1520 1523 1525 1526 1528 1529 1531 1531 1532
1509 1508 1502 1490 1484 1482 1470 1458 1450 1443 1438 1437 1434 1432 1431 1429 1430 1432 1435 1437 1437 1440 1442 1446 1451 1455 1461 1466 1472 1477 1481 1485 1490 1494 1498 1501 1505 1508 1511 1514 1517 1520 1521 1523 1525 1526 1525 1528 1529
1505 1504 1500 1493 1482 1476 1470 1456 1450 1433 1433 1430 1428 1424 1423 1422 1422 1423 1427 1429 1430 1430 1435 1438 1443 1447 1453 1459 1464 1470 1476 1483 1485 1488 1493 1497 1500 1504 1508 1511 1513 1516 1519 1520 1520 1521 1522 1521 1524
1508 1497 1493 1488 1487 1491 1475 1470 1445 1435 1433 1430 1428 1424 1420 1417 1416 1417 1420 1422 1423 1423 1428 1431 1434 1439 1446 1448 1455 1460 1467 1470 1476 1483 1488 1492 1496 1499 1503 1505 1509 1512 1515 1516 1516 1516 1517 1517 1520
1505 1495 1491 1486 1484 1486 1471 1477 1444 1438 1432 1432 1429 1425 1421 1418 1416 1413 1412 1413 1416 1417 1420 1424 1428 1432 1437 1442 1448 1454 1461 1467 1472 1479 1483 1489 1491 1495 1497 1501 1504 1507 1509 1510 1511 1512 1514 1515 1518
1499 1495 1485 1484 1481 1486 1472 1479 1442 1439 1436 1432 1428 1424 1421 1415 1412 1409 1406 1403 1408 1410 1413 1416 1420 1425 1430 1436 1443 1448 1451 1460 1465 1472 1477 1482 1486 1490 1493 1496 1500 1502 1504 1505 1506 1508 1511 1512 1516
1503 1507 1526 1518 1515 1503 1464 1467 1441 1436 1434 1433 1429 1422 1418 1415 1410 1406 1404 1401 1400 1404 1405 1409 1413 1415 1423 1428 1437 1441 1445 1453 1459 1466 1472 1477 1482 1487 1489 1492 1495 1498 1501 1501 1503 1506 1510 1512 1515
1507 1510 1507 1495 1508 1473 1456 1464 1436 1433 1433 1433 1430 1425 1417 1407 1407 1403 1401 1398 1395 1396 1401 1404 1405 1412 1414 1423 1431 1434 1440 1447 1453 1460 1466 1472 1476 1481 1486 1488 1492 1495 1499 1501 1503 1504 1507 1512 1516
1511 1513 1498 1492 1493 1481 1464 1446 1432 1430 1429 1425 1420 1417 1412 1407 1401 1397 1394 1392 1390 1390 1393 1399 1404 1407 1410 1415 1423 1429 1436 1441 1446 1453 1458 1465 1470 1475 1481 1487 1491 1496 1499 1502 1501 1505 1509 1512 1516
1505 1501 1504 1505 1488 1477 1460 1457 1438 1437 1434 1431 1425 1419 1411 1405 1399 1391 1386 1384 1382 1383 1386 1390 1398 1403 1407 1411 1417 1422 1430 1435 1440 1446 1450 1458 1463 1472 1480 1486 1492 1496 1500 1503 1507 1506 1512 1516 1519
1515 1513 1506 1504 1494 1474 1466 1447 1436 1438 1431 1427 1423 1417 1409 1400 1394 1388 1380 1377 1374 1373 1376 1381 1390 1396 1402 1408 1413 1419 1425 1430 1434 1439 1445 1452 1460 1468 1480 1486 1492 1496 1500 1502 1511 1514 1515 1518 1520
1504 1504 1509 1505 1492 1486 1477 1451 1434 1433 1432 1429 1422 1414 1407 1397 1388 1382 1377 1373 1369 1366 1367 1373 1381 1388 1397 1403 1409 1415 1422 1426 1429 1433 1441 1452 1461 1470 1480 1487 1494 1496 1499 1508 1513 1514 1517 1520 1521
Wind_Speed
12 5 5 3 2 3 3 6 3 4 5 6 4 5 8 4 4 4 7 20 20 27 30 27 23 21 21 18 13 12 16 17 19 19 19 18 18 17 18 16 14 15 15 15 17 18 19 19 19
12 7 2 2 3 2 5 5 4 2 2 2 2 11 3 2 4 8 19 18 16 26 31 28 24 23 21 18 13 12 16 18 17 19 17 18 18 18 16 15 14 15 17 19 19 18 18 17 16
10 9 2 3 3 5 5 4 2 3 2 1 2 4 4 8 8 14 8 16 19 25 30 29 25 23 20 18 15 12 13 17 18 17 17 16 16 17 14 14 17 19 19 19 18 16 15 14 14
6 2 3 2 7 7 8 6 5 5 1 3 5 3 3 5 12 13 10 16 18 23 30 29 25 23 21 18 16 13 13 15 17 18 17 17 17 15 16 19 17 18 17 17 16 14 13 12 12
5 2 1 4 6 6 5 6 10 5 3 4 4 5 5 11 9 12 12 17 19 24 30 29 26 23 23 19 17 14 12 14 18 18 17 17 15 16 17 18 18 17 17 16 14 13 12 11 12
3 1 1 5 6 7 7 16 11 9 10 4 6 10 8 11 13 14 15 20 19 25 30 30 28 26 23 21 18 16 12 13 16 18 18 17 15 17 19 18 17 17 15 14 12 11 10 10 12
3 2 4 5 5 5 6 8 4 13 10 7 8 6 4 15 14 16 21 20 19 23 29 31 29 28 27 24 21 19 15 12 13 17 18 15 15 17 18 17 16 15 13 11 10 9 9 10 10
4 3 3 4 8 10 8 4 15 7 9 7 11 6 6 21 19 24 23 21 21 22 26 28 30 30 31 27 24 20 17 14 12 16 16 16 17 18 18 16 15 14 12 10 9 8 8 9 9
3 3 5 7 8 9 12 4 11 12 9 5 6 7 7 18 26 30 28 25 23 24 25 24 29 32 33 30 26 23 19 17 13 13 15 17 18 20 19 16 14 13 11 9 8 7 6 6 8
4 4 6 4 5 5 11 5 14 6 10 5 6 9 9 23 30 34 34 34 31 31 29 25 29 33 36 32 28 26 23 21 17 13 16 18 19 19 18 17 15 13 11 9 7 7 6 4 5
4 5 5 11 16 17 15 18 15 4 6 12 13 18 19 27 32 35 35 35 33 33 31 29 31 34 36 35 33 30 27 24 21 16 16 17 19 20 20 18 16 14 12 9 7 5 5 5 4
6 7 6 8 16 16 10 16 12 15 13 23 16 19 24 31 34 36 38 38 37 35 33 29 31 36 36 35 36 34 31 27 25 19 18 20 21 22 20 18 17 15 13 11 8 5 4 5 5
2 8 20 21 20 20 20 12 13 24 20 23 20 14 25 30 33 34 36 39 37 36 34 31 30 36 37 38 37 36 35 33 28 26 23 21 22 22 21 20 18 17 13 11 9 6 7 7 7
13 14 18 17 25 18 14 17 7 4 15 20 20 14 21 31 32 34 37 39 40 38 35 33 31 35 34 33 34 36 34 33 32 26 25 23 22 22 22 22 20 18 16 13 11 10 9 9 8
12 6 8 4 12 6 22 13 19 22 25 31 32 24 23 25 29 37 32 36 39 42 39 37 34 35 34 34 35 36 34 32 34 29 25 26 25 23 25 23 21 18 18 15 16 14 11 11 11
5 3 6 11 9 8 11 11 18 13 23 23 26 23 25 25 28 32 34 36 35 38 42 40 38 37 39 38 35 35 34 33 33 30 27 28 26 25 29 24 22 21 20 18 19 16 14 12 12
5 5 9 8 12 5 2 12 9 34 26 24 27 31 25 16 22 30 31 37 37 40 40 43 42 40 38 38 36 34 34 35 34 28 29 28 28 29 27 25 27 25 23 22 20 17 15 14 13
8 7 5 10 7 18 17 24 10 22 30 31 31 29 29 33 28 15 27 35 39 42 43 44 45 43 40 37 36 34 33 33 30 28 28 28 31 31 27 28 28 27 24 23 21 18 17 15 14
6 6 10 14 14 9 13 25 21 24 28 29 30 32 33 30 33 28 21 27 41 41 45 48 49 48 45 43 40 37 37 33 30 29 28 26 30 30 30 31 30 29 27 25 22 20 20 19 18
8 9 9 10 7 11 16 23 24 22 24 29 29 29 29 34 37 36 29 22 34 45 44 46 52 52 49 45 42 40 39 37 33 33 32 31 31 29 31 31 29 30 27 24 24 23 25 23 20
6 5 6 13 15 11 10 10 7 13 11 18 20 28 30 31 34 39 35 24 25 41 47 48 49 55 52 48 46 43 40 38 37 39 38 35 33 31 32 31 31 29 28 26 26 27 27 28 27
6 5 12 17 11 6 6 7 13 9 9 6 15 21 24 23 26 29 33 30 25 33 46 48 50 56 54 52 49 48 46 47 45 45 41 39 35 34 32 31 29 29 28 27 27 27 28 27 29
10 11 15 16 15 7 3 3 9 4 5 7 8 21 27 25 20 17 21 33 33 30 38 49 50 54 58 56 50 50 47 46 45 45 40 39 36 34 34 30 30 30 31 29 28 28 26 23 22
8 9 15 2 1 3 4 4 9 2 3 5 10 17 22 31 29 24 20 14 30 33 35 45 51 53 55 53 50 50 50 48 47 47 43 39 35 34 33 30 29 29 30 28 28 26 22 19 14
10 4 4 6 3 6 2 2 10 1 2 5 9 22 27 24 33 31 25 13 20 32 37 40 49 51 52 53 49 49 51 47 48 46 45 40 35 35 31 30 29 29 28 28 26 21 16 17 14
5 2 3 5 3 12 8 6 5 4 2 11 18 21 27 35 32 33 30 20 10 17 28 41 44 47 50 49 49 49 48 47 47 46 44 41 38 35 32 30 28 28 27 22 18 17 15 18 16
5 2 7 5 3 4 3 6 3 5 14 26 32 34 34 33 36 36 34 27 18 17 24 32 41 45 49 45 47 47 47 46 48 48 44 41 39 35 31 29 28 24 21 21 22 19 19 15 13
4 2 4 3 5 5 4 5 5 11 18 19 23 29 34 35 34 36 35 29 24 19 22 29 40 44 47 46 46 48 46 45 47 48 44 42 36 32 31 28 25 25 24 20 21 21 17 13 14
5 4 2 3 4 4 6 4 3 9 21 21 23 32 36 36 34 32 35 29 26 22 26 34 39 43 45 42 46 48 47 48 47 47 42 40 36 33 30 30 30 25 26 25 18 16 16 14 13
4 1 1 3 4 5 5 7 5 20 18 22 29 32 34 34 33 29 28 27 19 17 21 30 39 43 42 43 44 45 46 47 47 45 41 37 35 35 34 30 28 28 26 20 17 16 14 11 9
Wind_Direction
306 316 266 229 70 70 253 256 307 301 164 287 289 146 143 81 142 200 160 165 173 175 177 176 174 170 165 161 150 139 145 142 143 138 137 132 135 133 124 114 121 126 121 121 112 107 104 102 104
307 317 266 210 120 156 268 242 240 225 253 231 106 110 75 128 144 154 150 167 182 179 177 178 174 171 171 165 156 141 149 144 144 144 141 138 137 126 128 143 141 125 121 116 113 107 104 104 107
295 303 274 160 183 199 195 229 125 224 180 197 109 83 144 154 176 173 155 169 173 183 180 180 175 175 175 170 163 146 153 149 153 145 145 143 138 133 149 160 129 122 119 116 112 109 106 106 111
272 280 233 164 228 253 188 220 349 280 235 257 138 68 119 181 163 177 175 168 174 185 184 182 177 179 177 174 168 153 156 157 154 151 150 145 145 153 137 129 127 123 123 116 113 109 102 103 110
250 231 241 244 246 264 268 253 270 264 263 226 202 191 168 156 174 193 186 175 181 184 185 185 180 184 182 179 174 167 161 167 161 157 155 155 152 141 141 138 133 130 123 120 114 105 96 101 115
237 180 184 241 253 264 283 273 264 238 238 242 163 158 176 186 194 197 190 181 188 184 187 188 187 184 186 186 181 176 169 171 166 162 161 161 158 154 145 143 138 134 130 123 112 104 97 108 122
185 128 228 229 259 279 262 308 221 229 222 209 170 148 198 181 191 202 187 189 188 186 189 191 191 189 186 191 189 183 179 176 179 170 168 165 162 158 153 149 143 136 132 127 123 111 99 111 138
227 146 242 227 238 257 258 294 309 302 247 206 189 181 198 194 185 185 190 191 191 190 188 191 192 191 187 192 193 191 188 186 189 182 175 170 168 166 162 157 150 143 140 140 134 122 112 126 134
231 229 218 224 217 252 274 317 314 303 257 220 200 201 221 186 176 176 187 193 198 195 194 192 193 192 188 192 194 195 196 196 194 196 181 175 175 173 169 164 159 154 149 149 142 138 135 143 146
205 230 232 243 240 269 299 315 319 317 288 251 219 220 204 179 180 183 192 196 197 198 197 199 199 194 193 195 195 197 199 201 199 201 189 180 181 179 175 171 168 163 165 160 155 153 162 176 157
282 242 295 282 298 322 308 302 297 250 281 251 233 220 189 183 188 193 198 206 204 202 200 203 202 197 196 197 196 197 199 205 202 199 195 189 187 184 181 179 175 172 174 169 173 169 179 196 181
326 333 18 314 323 322 318 314 293 259 249 280 308 254 204 191 195 201 202 206 207 205 206 207 203 199 199 201 203 201 197 207 209 204 200 200 194 190 187 184 180 180 187 183 187 200 206 211 205
233 345 324 313 312 303 298 281 272 277 272 271 286 262 217 208 208 211 212 207 208 209 208 211 207 203 204 206 208 206 202 201 212 203 202 206 202 196 192 187 185 185 196 205 209 224 221 220 224
312 297 296 308 304 290 273 279 273 310 278 272 274 259 243 223 219 218 213 211 212 214 214 212 210 205 208 208 211 210 208 204 208 210 205 205 205 198 194 189 194 193 199 213 231 237 233 223 222
292 313 317 311 348 299 338 272 259 272 277 280 277 267 253 240 234 224 228 224 218 220 215 214 211 207 208 211 215 211 213 211 211 212 210 208 209 200 196 197 205 208 209 215 228 235 230 224 218
326 19 2 318 342 309 3 281 310 312 327 313 308 295 258 255 249 242 232 230 230 219 220 218 215 211 209 212 215 212 211 217 212 209 209 209 209 201 195 202 203 214 217 224 235 239 230 223 215
17 311 319 313 310 298 221 293 294 306 308 300 297 296 291 286 262 255 249 238 236 227 221 220 219 215 212 212 214 218 212 216 220 211 214 209 205 200 200 201 212 217 222 225 235 236 228 222 211
301 307 283 287 296 304 296 288 289 295 296 291 291 289 289 286 279 278 264 250 242 232 224 220 218 217 214 211 210 216 217 216 214 214 213 210 202 200 207 212 219 219 218 228 230 233 225 224 215
261 273 282 285 280 294 287 288 291 289 278 275 270 274 278 275 280 273 277 254 247 234 226 217 216 218 213 213 212 215 215 214 213 211 210 210 208 208 211 213 219 224 225 232 229 226 226 213 211
290 293 289 288 283 300 294 284 283 275 271 266 269 270 268 275 272 269 264 267 247 236 229 222 215 217 214 216 214 217 215 209 213 211 207 208 210 214 216 217 222 226 222 228 233 227 219 216 206
300 258 280 287 311 286 299 298 332 293 270 280 281 277 275 264 266 265 262 261 259 236 231 223 215 216 212 213 210 211 209 210 207 208 209 208 211 220 218 225 225 226 230 232 231 224 222 216 199
292 273 292 297 318 307 73 295 284 288 312 352 344 351 342 309 285 266 259 252 254 239 230 231 220 214 213 211 213 218 213 206 209 210 211 214 215 218 226 220 223 226 228 227 223 216 214 216 200
264 284 286 285 285 295 14 242 272 303 312 347 348 344 346 347 353 348 306 259 243 245 235 224 221 214 210 215 220 218 213 216 217 212 215 212 217 222 215 221 223 225 224 220 215 209 204 198 208
292 318 307 357 219 260 254 152 278 291 309 328 328 340 345 346 337 334 334 265 244 242 235 229 219 214 208 214 217 218 213 216 212 209 211 209 213 217 215 219 220 222 221 214 208 201 197 181 162
17 3 332 348 3 224 265 292 247 43 1 323 322 334 334 340 338 329 328 331 229 243 234 228 223 214 205 211 215 215 218 219 220 217 217 213 216 218 213 216 215 217 210 200 191 190 176 171 181
314 122 276 294 288 292 276 231 271 110 345 334 328 327 329 334 332 323 320 312 275 229 231 231 225 216 205 212 215 216 217 217 219 218 220 218 221 214 212 209 206 203 193 190 181 169 178 158 136
289 340 277 267 243 267 268 293 268 6 355 349 339 337 329 322 321 317 315 311 281 242 225 223 231 221 213 215 213 219 220 218 217 215 213 219 210 204 202 201 194 184 178 160 160 151 122 120 140
203 320 333 3 299 294 276 277 257 4 346 333 329 325 319 316 314 313 311 310 286 252 233 215 224 227 216 212 216 217 217 216 216 215 211 209 197 199 192 180 172 156 148 145 126 116 126 139 149
338 332 12 272 239 291 322 264 161 345 339 330 327 322 319 315 312 308 307 306 288 253 233 218 220 213 208 217 213 217 214 214 209 208 200 193 190 184 171 160 151 147 139 117 119 132 144 152 152
223 84 296 249 314 269 255 272 175 341 330 327 322 317 317 312 310 307 306 304 298 262 225 209 208 200 203 216 215 211 211 206 204 195 185 181 169 157 151 147 147 133 115 129 146 146 145 148 133